Date,TemperatureHighF,TemperatureAvgF,TemperatureLowF,DewpointHighF,DewpointAvgF,DewpointLowF,HumidityHigh,HumidityAvg,HumidityLow,PressureMaxIn,PressureMinIn,WindSpeedMaxMPH,WindSpeedAvgMPH,GustSpeedMaxMPH,PrecipitationSumIn
2013-11-1,72.9,61.0,44.2,57.4,52.8,44.0,99,78,45,30.19,29.88,23,7,24,0.00
2013-11-2,75.6,66.2,54.9,65.5,59.9,54.6,99,82,53,29.88,29.77,12,5,16,0.00
2013-11-3,77.9,68.0,57.4,68.4,61.9,57.1,99,82,56,29.80,29.74,19,9,23,0.00
2013-11-4,70.2,66.0,57.2,64.0,58.1,49.4,99,77,51,29.77,29.44,40,14,46,0.02
2013-11-5,76.8,72.3,66.0,63.7,59.2,53.3,84,64,51,29.64,29.49,53,16,62,0.00
2013-11-6,80.6,71.2,58.8,63.2,59.6,56.4,95,68,45,29.85,29.62,36,12,36,0.00
2013-11-7,80.6,69.8,58.3,70.9,65.2,57.1,99,87,62,29.84,29.76,14,4,14,0.00
2013-11-8,78.1,68.2,57.6,67.5,60.1,54.5,99,77,48,29.80,29.71,17,6,20,0.01
2013-11-9,69.3,62.9,51.1,61.4,55.9,48.3,99,78,63,29.93,29.80,19,8,22,0.00
2013-11-10,71.1,67.4,50.5,56.9,52.1,48.8,94,58,46,29.92,29.77,46,20,49,0.01
2013-11-11,70.5,63.9,55.9,58.8,50.9,16.7,94,66,16,29.88,29.80,18,6,24,0.00
2013-11-12,71.6,65.1,55.9,49.6,39.5,19.9,66,41,20,29.88,29.83,40,10,40,0.00
2013-11-13,72.3,62.4,51.3,62.2,54.7,45.1,99,78,51,29.90,29.83,17,6,24,0.04
2013-11-14,70.9,60.6,53.6,66.1,58.3,53.3,99,93,67,29.95,29.88,14,4,21,0.18
2013-11-15,57.9,50.8,46.0,55.5,46.5,43.4,99,86,69,29.88,29.73,21,8,30,0.21
2013-11-16,61.5,54.8,48.4,60.7,54.1,46.2,99,97,87,29.78,29.57,16,5,16,0.53
2013-11-17,54.1,51.9,47.8,53.9,51.7,47.6,99,99,99,29.74,29.51,8,4,10,0.45
2013-11-18,62.6,55.9,50.7,56.4,52.1,50.1,99,88,65,29.51,29.19,16,6,17,0.72
2013-11-19,61.0,56.7,52.7,56.6,53.6,51.9,99,90,77,29.58,29.19,35,10,40,1.28
2013-11-20,54.7,47.6,41.0,52.3,45.8,40.7,99,94,80,29.70,29.58,17,5,25,0.32
2013-11-21,61.9,57.1,44.6,46.0,43.4,36.9,99,60,45,29.68,29.36,27,12,29,0.00
2013-11-22,60.1,52.7,47.5,47.5,40.4,32.6,96,64,43,29.50,29.31,40,13,42,0.11
2013-11-23,59.7,50.6,44.6,46.4,41.2,36.0,93,71,48,29.56,29.44,20,6,23,0.00
2013-11-24,61.7,53.5,48.6,49.2,44.8,41.6,99,73,54,29.75,29.56,21,7,21,0.01
2013-11-25,57.2,49.0,42.8,52.7,48.0,42.5,99,97,80,29.91,29.75,7,3,11,0.09
2013-11-26,52.5,48.5,41.9,44.0,40.4,37.0,99,74,61,29.99,29.89,9,3,13,0.00
2013-11-27,55.9,46.0,39.2,47.4,43.1,38.7,99,90,63,30.00,29.92,18,4,20,0.19
2013-11-28,58.3,47.0,39.0,48.0,42.0,37.8,99,84,53,30.10,30.01,15,6,17,0.07
2013-11-29,54.0,45.3,37.8,48.7,42.1,34.6,99,90,48,30.09,30.00,16,5,19,0.01
2013-11-30,49.8,45.4,36.1,49.4,44.9,35.9,99,98,90,30.00,29.58,21,5,26,0.27